Hourly Weather Krivoe Ozero

Today, 15 August, Saturday

Time Temperature Precipitation Wind Pressure Humidity
00:00 +14°C° 0 mm 3 mps 754 mmHg 61%
01:00 +15°C° 0 mm 2 mps 755 mmHg 62%
02:00 +14°C° 0 mm 2 mps 755 mmHg 62%
03:00 +14°C° 0 mm 2 mps 755 mmHg 64%
04:00 +13°C° 0 mm 2 mps 755 mmHg 65%
05:00 +13°C° 0 mm 2 mps 755 mmHg 66%
06:00 +15°C° 0 mm 2 mps 755 mmHg 61%
07:00 +17°C° 0 mm 3 mps 755 mmHg 56%
08:00 +19°C° 0 mm 3 mps 755 mmHg 50%
09:00 +20°C° 0 mm 3 mps 755 mmHg 47%
10:00 +22°C° 0 mm 3 mps 755 mmHg 43%
11:00 +24°C° 0 mm 3 mps 755 mmHg 39%
12:00 +25°C° 0 mm 2 mps 755 mmHg 37%
13:00 +25°C° 0 mm 2 mps 754 mmHg 36%
14:00 +26°C° 0 mm 2 mps 754 mmHg 33%
15:00 +26°C° 0 mm 2 mps 754 mmHg 32%
16:00 +26°C° 0 mm 2 mps 754 mmHg 31%
17:00 +26°C° 0 mm 2 mps 753 mmHg 31%
18:00 +24°C° 0 mm 2 mps 753 mmHg 35%
19:00 +21°C° 0 mm 2 mps 753 mmHg 39%
20:00 +19°C° 0 mm 2 mps 753 mmHg 43%
21:00 +19°C° 0 mm 2 mps 754 mmHg 46%
22:00 +18°C° 0 mm 3 mps 754 mmHg 50%
23:00 +17°C° 0 mm 3 mps 754 mmHg 54%

Tomorrow, 16 August, Sunday

Time Temperature Precipitation Wind Pressure Humidity
00:00 +16°C° 0 mm 3 mps 754 mmHg 56%
01:00 +16°C° 0 mm 2 mps 754 mmHg 58%
02:00 +16°C° 0 mm 2 mps 754 mmHg 60%
03:00 +15°C° 0 mm 2 mps 754 mmHg 62%
04:00 +15°C° 0 mm 2 mps 754 mmHg 63%
05:00 +14°C° 0 mm 2 mps 754 mmHg 64%
06:00 +16°C° 0 mm 2 mps 754 mmHg 59%
07:00 +19°C° 0 mm 2 mps 754 mmHg 53%
08:00 +21°C° 0 mm 2 mps 754 mmHg 47%
09:00 +23°C° 0 mm 2 mps 754 mmHg 42%
10:00 +25°C° 0 mm 2 mps 755 mmHg 38%
11:00 +26°C° 0 mm 2 mps 755 mmHg 33%
12:00 +27°C° 0 mm 2 mps 754 mmHg 31%
13:00 +28°C° 0 mm 2 mps 754 mmHg 29%
14:00 +28°C° 0 mm 2 mps 754 mmHg 27%
15:00 +28°C° 0 mm 2 mps 754 mmHg 27%
16:00 +28°C° 0 mm 2 mps 753 mmHg 27%
17:00 +28°C° 0 mm 2 mps 753 mmHg 27%
18:00 +26°C° 0 mm 2 mps 753 mmHg 31%
19:00 +24°C° 0 mm 2 mps 754 mmHg 36%
20:00 +21°C° 0 mm 2 mps 754 mmHg 40%
21:00 +21°C° 0 mm 1 mps 754 mmHg 43%
22:00 +20°C° 0 mm 1 mps 754 mmHg 45%
23:00 +20°C° 0 mm 1 mps 754 mmHg 48%

Day after tomorrow, 17 August, Monday

Time Temperature Precipitation Wind Pressure Humidity
00:00 +19°C° 0 mm 1 mps 754 mmHg 50%
01:00 +18°C° 0 mm 1 mps 754 mmHg 52%
02:00 +18°C° 0 mm 1 mps 754 mmHg 54%
03:00 +16°C° 0 mm 1 mps 754 mmHg 55%
04:00 +15°C° 0 mm 0 mps 754 mmHg 56%
05:00 +15°C° 0 mm 0 mps 754 mmHg 57%
06:00 +17°C° 0 mm 0 mps 754 mmHg 52%
07:00 +20°C° 0 mm 0 mps 754 mmHg 46%
08:00 +22°C° 0 mm 0 mps 754 mmHg 40%
09:00 +24°C° 0 mm 0 mps 754 mmHg 36%
10:00 +26°C° 0 mm 0 mps 754 mmHg 32%
11:00 +28°C° 0 mm 0 mps 754 mmHg 28%
12:00 +30°C° 0 mm 1 mps 754 mmHg 27%
13:00 +31°C° 0 mm 1 mps 753 mmHg 25%
14:00 +31°C° 0 mm 1 mps 753 mmHg 24%
15:00 +31°C° 0 mm 1 mps 753 mmHg 24%
16:00 +31°C° 0 mm 1 mps 752 mmHg 24%
17:00 +30°C° 0 mm 1 mps 752 mmHg 24%
18:00 +28°C° 0 mm 1 mps 752 mmHg 28%
19:00 +26°C° 0 mm 1 mps 752 mmHg 31%
20:00 +24°C° 0 mm 1 mps 752 mmHg 35%
21:00 +23°C° 0 mm 1 mps 752 mmHg 37%
22:00 +23°C° 0 mm 2 mps 752 mmHg 40%
23:00 +21°C° 0 mm 2 mps 752 mmHg 42%

18 August, Tuesday

Time Temperature Precipitation Wind Pressure Humidity
00:00 +20°C° 0 mm 2 mps 752 mmHg 45%
01:00 +20°C° 0 mm 1 mps 752 mmHg 48%
02:00 +19°C° 0 mm 1 mps 752 mmHg 50%
03:00 +19°C° 0 mm 1 mps 752 mmHg 52%
04:00 +17°C° 0 mm 0 mps 752 mmHg 53%
05:00 +16°C° 0 mm 0 mps 751 mmHg 55%
06:00 +21°C° 0 mm 1 mps 751 mmHg 49%
07:00 +23°C° 0 mm 1 mps 752 mmHg 44%
08:00 +25°C° 0 mm 1 mps 752 mmHg 39%
09:00 +27°C° 0 mm 2 mps 752 mmHg 34%
10:00 +29°C° 0 mm 2 mps 751 mmHg 30%
11:00 +31°C° 0 mm 3 mps 751 mmHg 26%
12:00 +31°C° 0 mm 3 mps 751 mmHg 25%
13:00 +33°C° 0 mm 3 mps 750 mmHg 23%
14:00 +34°C° 0 mm 3 mps 750 mmHg 22%
15:00 +34°C° 0 mm 3 mps 750 mmHg 22%
16:00 +33°C° 0 mm 3 mps 749 mmHg 23%
17:00 +32°C° 0 mm 2 mps 749 mmHg 23%
18:00 +30°C° 0 mm 2 mps 749 mmHg 26%
19:00 +28°C° 0 mm 2 mps 749 mmHg 30%
20:00 +26°C° 0 mm 2 mps 749 mmHg 34%
21:00 +25°C° 0 mm 2 mps 749 mmHg 37%
22:00 +24°C° 0 mm 2 mps 749 mmHg 40%
23:00 +22°C° 0 mm 3 mps 749 mmHg 43%

19 August, Wednesday

Time Temperature Precipitation Wind Pressure Humidity
00:00 +21°C° 0 mm 2 mps 749 mmHg 46%
01:00 +20°C° 0 mm 2 mps 749 mmHg 48%
02:00 +21°C° 0 mm 1 mps 749 mmHg 50%
03:00 +19°C° 0 mm 2 mps 749 mmHg 52%
04:00 +19°C° 0 mm 2 mps 748 mmHg 54%
05:00 +18°C° 0 mm 2 mps 748 mmHg 55%
06:00 +21°C° 0 mm 2 mps 748 mmHg 50%
07:00 +24°C° 0 mm 3 mps 749 mmHg 44%
08:00 +26°C° 0 mm 3 mps 749 mmHg 39%
09:00 +28°C° 0 mm 4 mps 749 mmHg 35%
10:00 +30°C° 0 mm 5 mps 749 mmHg 31%
11:00 +33°C° 0 mm 6 mps 749 mmHg 27%
12:00 +33°C° 0 mm 5 mps 748 mmHg 26%
13:00 +34°C° 0 mm 5 mps 748 mmHg 25%
14:00 +34°C° 0 mm 5 mps 748 mmHg 23%
15:00 +34°C° 0 mm 5 mps 747 mmHg 24%
16:00 +34°C° 0 mm 4 mps 747 mmHg 25%
17:00 +34°C° 0 mm 4 mps 747 mmHg 26%
18:00 +32°C° 0 mm 4 mps 747 mmHg 30%
19:00 +29°C° 0 mm 4 mps 747 mmHg 34%
20:00 +27°C° 0 mm 4 mps 747 mmHg 38%
21:00 +26°C° 0 mm 4 mps 747 mmHg 40%
22:00 +25°C° 0 mm 3 mps 747 mmHg 42%
23:00 +24°C° 0 mm 3 mps 747 mmHg 45%

20 August, Thursday

Time Temperature Precipitation Wind Pressure Humidity
00:00 +24°C° 0 mm 2 mps 747 mmHg 47%
01:00 +23°C° 0 mm 2 mps 747 mmHg 50%
02:00 +21°C° 0 mm 2 mps 747 mmHg 52%
03:00 +21°C° 0 mm 2 mps 747 mmHg 53%
04:00 +21°C° 0 mm 2 mps 747 mmHg 53%
05:00 +22°C° 0 mm 1 mps 747 mmHg 54%
06:00 +23°C° 0 mm 1 mps 747 mmHg 53%
07:00 +24°C° 0 mm 1 mps 747 mmHg 51%
08:00 +25°C° 0 mm 1 mps 748 mmHg 50%
09:00 +27°C° 0 mm 1 mps 748 mmHg 45%
10:00 +28°C° 0 mm 2 mps 748 mmHg 40%
11:00 +30°C° 0 mm 2 mps 748 mmHg 35%
12:00 +31°C° 0 mm 2 mps 748 mmHg 33%
13:00 +32°C° 0 mm 2 mps 748 mmHg 30%
14:00 +32°C° 0 mm 2 mps 748 mmHg 28%
15:00 +31°C° 0.1 mm 3 mps 748 mmHg 33%
16:00 +30°C° 0.1 mm 4 mps 748 mmHg 39%
17:00 +29°C° 0.1 mm 5 mps 748 mmHg 45%
18:00 +27°C° 0.4 mm 5 mps 748 mmHg 55%
19:00 +25°C° 0.4 mm 5 mps 748 mmHg 65%
20:00 +22°C° 0.4 mm 6 mps 748 mmHg 76%
21:00 +22°C° 0.1 mm 6 mps 749 mmHg 76%
22:00 +22°C° 0.1 mm 6 mps 749 mmHg 75%
23:00 +21°C° 0.1 mm 6 mps 749 mmHg 75%
Show more